contact:dominique.lefevre@mio.osupytheas.fr, maurice.libes@osupytheas.fr, didier.mallarino@osupytheas.fr
Project:EMSO http://www.emso-fr.org/EMSO-France
Depth: 2436.0 m
Title:EMSO Ligure Ouest : Data MII capteur MICROCAT
DateTime_Computer,Latitude,Longitude,Temperature,Conductivity,Pressure,DateTime_Instrument
DateTime_Computer,Latitude,Longitude,degC,S m-1,dbar,DateTime_Instrument
2020-02-25T00:03:00Z,42.805,6.029,13.2975,4.59976,2469.867,2020-2-25T02:03:35Z
2020-02-25T00:06:03Z,42.805,6.029,13.2973,4.59978,2469.844,2020-2-25T02:06:39Z
2020-02-25T00:09:06Z,42.805,6.029,13.2982,4.59983,2469.844,2020-2-25T02:09:42Z
2020-02-25T00:12:09Z,42.805,6.029,13.2977,4.59984,2469.853,2020-2-25T02:12:45Z
2020-02-25T00:15:13Z,42.805,6.029,13.2973,4.59979,2469.806,2020-2-25T02:15:48Z
2020-02-25T00:18:16Z,42.805,6.029,13.2979,4.59983,2469.806,2020-2-25T02:18:52Z
2020-02-25T00:21:19Z,42.805,6.029,13.2983,4.59984,2469.83,2020-2-25T02:21:55Z
2020-02-25T00:24:22Z,42.805,6.029,13.2974,4.59976,2469.844,2020-2-25T02:24:58Z
2020-02-25T00:27:25Z,42.805,6.029,13.2978,4.59980,2469.821,2020-2-25T02:28:01Z
2020-02-25T00:30:29Z,42.805,6.029,13.2976,4.59983,2469.806,2020-2-25T02:31:04Z
2020-02-25T00:33:32Z,42.805,6.029,13.2981,4.59986,2469.844,2020-2-25T02:34:08Z
2020-02-25T00:36:35Z,42.805,6.029,13.2983,4.59983,2469.844,2020-2-25T02:37:11Z
2020-02-25T00:39:38Z,42.805,6.029,13.2974,4.59979,2469.806,2020-2-25T02:40:14Z
2020-02-25T00:42:42Z,42.805,6.029,13.2973,4.59984,2469.806,2020-2-25T02:43:17Z
2020-02-25T00:45:45Z,42.805,6.029,13.2975,4.59980,2469.821,2020-2-25T02:46:20Z
2020-02-25T00:48:48Z,42.805,6.029,13.2978,4.59979,2469.797,2020-2-25T02:49:24Z
2020-02-25T00:51:51Z,42.805,6.029,13.2974,4.59977,2469.844,2020-2-25T02:52:27Z
2020-02-25T00:54:54Z,42.805,6.029,13.2977,4.59980,2469.83,2020-2-25T02:55:30Z
2020-02-25T00:57:57Z,42.805,6.029,13.2976,4.59976,2469.806,2020-2-25T02:58:33Z
2020-02-25T01:01:01Z,42.805,6.029,13.2977,4.59978,2469.806,2020-2-25T03:01:36Z
2020-02-25T01:04:04Z,42.805,6.029,13.2971,4.59976,2469.806,2020-2-25T03:04:39Z
2020-02-25T01:07:07Z,42.805,6.029,13.2976,4.59980,2469.806,2020-2-25T03:07:43Z
2020-02-25T01:10:10Z,42.805,6.029,13.2976,4.59993,2469.783,2020-2-25T03:10:46Z
2020-02-25T01:13:14Z,42.805,6.029,13.2976,4.59982,2469.773,2020-2-25T03:13:49Z
2020-02-25T01:16:17Z,42.805,6.029,13.2976,4.59980,2469.821,2020-2-25T03:16:52Z
2020-02-25T01:19:20Z,42.805,6.029,13.2979,4.59984,2469.783,2020-2-25T03:19:56Z
2020-02-25T01:22:23Z,42.805,6.029,13.2978,4.59986,2469.806,2020-2-25T03:22:59Z
2020-02-25T01:25:26Z,42.805,6.029,13.2976,4.59979,2469.806,2020-2-25T03:26:02Z
2020-02-25T01:28:30Z,42.805,6.029,13.2986,4.59992,2469.806,2020-2-25T03:29:06Z
2020-02-25T01:31:33Z,42.805,6.029,13.2976,4.59997,2469.783,2020-2-25T03:32:09Z
2020-02-25T01:34:36Z,42.805,6.029,13.2980,4.59995,2469.783,2020-2-25T03:35:12Z
2020-02-25T01:37:40Z,42.805,6.029,13.2986,4.59989,2469.821,2020-2-25T03:38:15Z
2020-02-25T01:40:43Z,42.805,6.029,13.2974,4.59978,2469.737,2020-2-25T03:41:18Z
2020-02-25T01:43:46Z,42.805,6.029,13.2973,4.59978,2469.797,2020-2-25T03:44:22Z
2020-02-25T01:46:49Z,42.805,6.029,13.2972,4.59976,2469.797,2020-2-25T03:47:25Z
2020-02-25T01:49:52Z,42.805,6.029,13.2971,4.59978,2469.76,2020-2-25T03:50:28Z
2020-02-25T01:52:55Z,42.805,6.029,13.2973,4.59975,2469.773,2020-2-25T03:53:31Z
2020-02-25T01:55:59Z,42.805,6.029,13.2974,4.59979,2469.783,2020-2-25T03:56:34Z
2020-02-25T01:59:02Z,42.805,6.029,13.2983,4.59991,2469.783,2020-2-25T03:59:38Z
2020-02-25T02:02:05Z,42.805,6.029,13.2981,4.59991,2469.797,2020-2-25T04:02:41Z
2020-02-25T02:05:08Z,42.805,6.029,13.2984,4.59996,2469.76,2020-2-25T04:05:44Z
2020-02-25T02:08:11Z,42.805,6.029,13.2974,4.59993,2469.783,2020-2-25T04:08:47Z
2020-02-25T02:11:15Z,42.805,6.029,13.2982,4.59993,2469.783,2020-2-25T04:11:50Z
2020-02-25T02:14:18Z,42.805,6.029,13.2979,4.59983,2469.76,2020-2-25T04:14:53Z
2020-02-25T02:17:21Z,42.805,6.029,13.2980,4.59994,2469.783,2020-2-25T04:17:57Z
2020-02-25T02:20:24Z,42.805,6.029,13.2970,4.59976,2469.797,2020-2-25T04:21:00Z
2020-02-25T02:23:27Z,42.805,6.029,13.2970,4.59974,2469.797,2020-2-25T04:24:03Z
2020-02-25T02:26:31Z,42.805,6.029,13.2979,4.59991,2469.821,2020-2-25T04:27:06Z
2020-02-25T02:29:34Z,42.805,6.029,13.2983,4.59991,2469.806,2020-2-25T04:30:10Z
2020-02-25T02:32:37Z,42.805,6.029,13.2976,4.59985,2469.769,2020-2-25T04:33:13Z
2020-02-25T02:35:40Z,42.805,6.029,13.2971,4.59978,2469.76,2020-2-25T04:36:16Z
2020-02-25T02:38:43Z,42.805,6.029,13.2975,4.59978,2469.773,2020-2-25T04:39:19Z
2020-02-25T02:41:47Z,42.805,6.029,13.2976,4.59981,2469.806,2020-2-25T04:42:22Z
2020-02-25T02:44:50Z,42.805,6.029,13.2974,4.59983,2469.806,2020-2-25T04:45:26Z
2020-02-25T02:47:53Z,42.805,6.029,13.2981,4.59994,2469.783,2020-2-25T04:48:29Z
2020-02-25T02:50:56Z,42.805,6.029,13.2976,4.59995,2469.821,2020-2-25T04:51:32Z
2020-02-25T02:53:59Z,42.805,6.029,13.2984,4.60000,2469.783,2020-2-25T04:54:35Z
2020-02-25T02:57:03Z,42.805,6.029,13.2971,4.59976,2469.797,2020-2-25T04:57:38Z
2020-02-25T03:00:06Z,42.805,6.029,13.2978,4.59993,2469.821,2020-2-25T05:00:42Z
2020-02-25T03:03:09Z,42.805,6.029,13.2974,4.59987,2469.793,2020-2-25T05:03:45Z
2020-02-25T03:06:12Z,42.805,6.029,13.2972,4.59978,2469.783,2020-2-25T05:06:48Z
2020-02-25T03:09:15Z,42.805,6.029,13.2977,4.59979,2469.806,2020-2-25T05:09:51Z
2020-02-25T03:12:19Z,42.805,6.029,13.2980,4.59981,2469.806,2020-2-25T05:12:54Z
2020-02-25T03:15:22Z,42.805,6.029,13.2987,4.59995,2469.783,2020-2-25T05:15:57Z
2020-02-25T03:18:25Z,42.805,6.029,13.2979,4.59996,2469.853,2020-2-25T05:19:01Z
2020-02-25T03:21:28Z,42.805,6.029,13.2972,4.59983,2469.83,2020-2-25T05:22:04Z
2020-02-25T03:24:31Z,42.805,6.029,13.2983,4.59996,2469.83,2020-2-25T05:25:07Z
2020-02-25T03:27:34Z,42.805,6.029,13.2976,4.59993,2469.783,2020-2-25T05:28:10Z
2020-02-25T03:30:38Z,42.805,6.029,13.2975,4.59988,2469.821,2020-2-25T05:31:13Z
2020-02-25T03:33:41Z,42.805,6.029,13.2976,4.59988,2469.821,2020-2-25T05:34:17Z
2020-02-25T03:36:44Z,42.805,6.029,13.2976,4.59989,2469.821,2020-2-25T05:37:20Z
2020-02-25T03:39:47Z,42.805,6.029,13.2976,4.59993,2469.83,2020-2-25T05:40:23Z
2020-02-25T03:42:51Z,42.805,6.029,13.2979,4.59999,2469.821,2020-2-25T05:43:26Z
2020-02-25T03:45:54Z,42.805,6.029,13.2977,4.59996,2469.844,2020-2-25T05:46:29Z
2020-02-25T03:48:57Z,42.805,6.029,13.2974,4.59999,2469.876,2020-2-25T05:49:33Z
2020-02-25T03:52:00Z,42.805,6.029,13.2977,4.59988,2469.83,2020-2-25T05:52:36Z
2020-02-25T03:55:03Z,42.805,6.029,13.2976,4.59993,2469.853,2020-2-25T05:55:39Z
2020-02-25T03:58:07Z,42.805,6.029,13.2985,4.59991,2469.83,2020-2-25T05:58:42Z
2020-02-25T04:01:10Z,42.805,6.029,13.2972,4.59981,2469.83,2020-2-25T06:01:46Z
2020-02-25T04:04:13Z,42.805,6.029,13.2977,4.59997,2469.821,2020-2-25T06:04:49Z
2020-02-25T04:07:16Z,42.805,6.029,13.2986,4.59997,2469.844,2020-2-25T06:07:52Z
2020-02-25T04:10:19Z,42.805,6.029,13.2985,4.60000,2469.83,2020-2-25T06:10:55Z
2020-02-25T04:13:23Z,42.805,6.029,13.2983,4.59999,2469.83,2020-2-25T06:13:58Z
2020-02-25T04:16:26Z,42.805,6.029,13.2988,4.59996,2469.89,2020-2-25T06:17:01Z
2020-02-25T04:19:29Z,42.805,6.029,13.2985,4.60009,2469.83,2020-2-25T06:20:05Z
2020-02-25T04:22:32Z,42.805,6.029,13.2974,4.59979,2469.853,2020-2-25T06:23:08Z
2020-02-25T04:25:35Z,42.805,6.029,13.2987,4.60000,2469.89,2020-2-25T06:26:11Z
2020-02-25T04:28:39Z,42.805,6.029,13.2977,4.59995,2469.853,2020-2-25T06:29:14Z
2020-02-25T04:31:42Z,42.805,6.029,13.2981,4.60003,2469.844,2020-2-25T06:32:17Z
2020-02-25T04:34:45Z,42.805,6.029,13.2981,4.60007,2469.83,2020-2-25T06:35:21Z
2020-02-25T04:37:48Z,42.805,6.029,13.2988,4.59999,2469.867,2020-2-25T06:38:24Z
2020-02-25T04:40:52Z,42.805,6.029,13.2983,4.59997,2469.876,2020-2-25T06:41:27Z
2020-02-25T04:43:55Z,42.805,6.029,13.2974,4.59996,2469.853,2020-2-25T06:44:31Z
2020-02-25T04:46:58Z,42.805,6.029,13.2976,4.59979,2469.853,2020-2-25T06:47:34Z
2020-02-25T04:50:01Z,42.805,6.029,13.2976,4.59986,2469.853,2020-2-25T06:50:37Z
2020-02-25T04:53:04Z,42.805,6.029,13.2979,4.59991,2469.853,2020-2-25T06:53:40Z
2020-02-25T04:56:08Z,42.805,6.029,13.2982,4.59997,2469.9,2020-2-25T06:56:43Z
2020-02-25T04:59:11Z,42.805,6.029,13.2981,4.59996,2469.844,2020-2-25T06:59:46Z
2020-02-25T05:02:14Z,42.805,6.029,13.2983,4.59993,2469.863,2020-2-25T07:02:50Z
2020-02-25T05:05:17Z,42.805,6.029,13.2983,4.59994,2469.876,2020-2-25T07:05:53Z
2020-02-25T05:08:20Z,42.805,6.029,13.2976,4.59992,2469.89,2020-2-25T07:08:56Z
2020-02-25T05:11:24Z,42.805,6.029,13.2978,4.60004,2469.876,2020-2-25T07:11:59Z
2020-02-25T05:14:27Z,42.805,6.029,13.2977,4.60011,2469.89,2020-2-25T07:15:03Z
2020-02-25T05:17:30Z,42.805,6.029,13.2975,4.59986,2469.876,2020-2-25T07:18:06Z
2020-02-25T05:20:33Z,42.805,6.029,13.2984,4.60011,2469.89,2020-2-25T07:21:09Z
2020-02-25T05:23:36Z,42.805,6.029,13.2982,4.59999,2469.914,2020-2-25T07:24:12Z
2020-02-25T05:26:40Z,42.805,6.029,13.2986,4.59999,2469.9,2020-2-25T07:27:15Z
2020-02-25T05:29:43Z,42.805,6.029,13.2983,4.60001,2469.923,2020-2-25T07:30:19Z
2020-02-25T05:32:46Z,42.805,6.029,13.2997,4.60002,2469.914,2020-2-25T07:33:22Z
2020-02-25T05:35:49Z,42.805,6.029,13.2979,4.60002,2469.914,2020-2-25T07:36:25Z
2020-02-25T05:38:53Z,42.805,6.029,13.2982,4.60007,2469.914,2020-2-25T07:39:28Z
2020-02-25T05:41:56Z,42.805,6.029,13.2982,4.59997,2469.914,2020-2-25T07:42:31Z
2020-02-25T05:44:59Z,42.805,6.029,13.2984,4.60000,2469.914,2020-2-25T07:45:35Z
2020-02-25T05:48:02Z,42.805,6.029,13.2976,4.59981,2469.97,2020-2-25T07:48:38Z
2020-02-25T05:51:05Z,42.805,6.029,13.2986,4.60003,2469.937,2020-2-25T07:51:41Z
2020-02-25T05:54:09Z,42.805,6.029,13.2980,4.60001,2469.947,2020-2-25T07:54:44Z
2020-02-25T05:57:12Z,42.805,6.029,13.2982,4.59995,2469.947,2020-2-25T07:57:47Z
2020-02-25T06:00:15Z,42.805,6.029,13.2976,4.59986,2469.937,2020-2-25T08:00:51Z
2020-02-25T06:03:18Z,42.805,6.029,13.2984,4.60010,2469.947,2020-2-25T08:03:54Z
2020-02-25T06:06:21Z,42.805,6.029,13.2976,4.59982,2469.96,2020-2-25T08:06:57Z
2020-02-25T06:09:25Z,42.805,6.029,13.2980,4.60000,2469.937,2020-2-25T08:10:00Z
2020-02-25T06:12:28Z,42.805,6.029,13.2986,4.59996,2469.947,2020-2-25T08:13:04Z
2020-02-25T06:15:31Z,42.805,6.029,13.2979,4.59996,2469.97,2020-2-25T08:16:07Z
2020-02-25T06:18:34Z,42.805,6.029,13.2986,4.59997,2469.923,2020-2-25T08:19:10Z
2020-02-25T06:21:37Z,42.805,6.029,13.2983,4.60002,2469.993,2020-2-25T08:22:13Z
2020-02-25T06:24:41Z,42.805,6.029,13.2984,4.59991,2470.007,2020-2-25T08:25:16Z
2020-02-25T06:27:44Z,42.805,6.029,13.2982,4.60002,2469.97,2020-2-25T08:28:20Z
2020-02-25T06:30:47Z,42.805,6.029,13.2982,4.59990,2469.97,2020-2-25T08:31:23Z
2020-02-25T06:33:50Z,42.805,6.029,13.2983,4.60003,2469.984,2020-2-25T08:34:26Z
2020-02-25T06:36:53Z,42.805,6.029,13.2975,4.59980,2469.97,2020-2-25T08:37:29Z
2020-02-25T06:39:57Z,42.805,6.029,13.2971,4.59978,2469.993,2020-2-25T08:40:32Z
2020-02-25T06:43:00Z,42.805,6.029,13.2986,4.59996,2470.03,2020-2-25T08:43:36Z
2020-02-25T06:46:03Z,42.805,6.029,13.2983,4.60001,2469.993,2020-2-25T08:46:39Z
2020-02-25T06:49:06Z,42.805,6.029,13.2976,4.59990,2470.03,2020-2-25T08:49:42Z
2020-02-25T06:52:10Z,42.805,6.029,13.2978,4.59988,2470.007,2020-2-25T08:52:45Z
2020-02-25T06:55:13Z,42.805,6.029,13.2978,4.59999,2470.017,2020-2-25T08:55:48Z
2020-02-25T06:58:16Z,42.805,6.029,13.2983,4.59996,2469.993,2020-2-25T08:58:52Z
2020-02-25T07:01:19Z,42.805,6.029,13.2988,4.60006,2469.993,2020-2-25T09:01:55Z
2020-02-25T07:04:22Z,42.805,6.029,13.2987,4.59986,2470.017,2020-2-25T09:04:58Z
2020-02-25T07:07:25Z,42.805,6.029,13.2983,4.60009,2470.03,2020-2-25T09:08:01Z
2020-02-25T07:10:29Z,42.805,6.029,13.2971,4.59999,2470.007,2020-2-25T09:11:04Z
2020-02-25T07:13:32Z,42.805,6.029,13.2978,4.59997,2470.053,2020-2-25T09:14:08Z
2020-02-25T07:16:35Z,42.805,6.029,13.2978,4.59997,2470.017,2020-2-25T09:17:11Z
2020-02-25T07:19:38Z,42.805,6.029,13.2988,4.59992,2470.017,2020-2-25T09:20:14Z
2020-02-25T07:22:41Z,42.805,6.029,13.2976,4.59993,2470.03,2020-2-25T09:23:17Z
2020-02-25T07:25:45Z,42.805,6.029,13.2981,4.60003,2470.03,2020-2-25T09:26:20Z
2020-02-25T07:28:48Z,42.805,6.029,13.2980,4.60000,2470.063,2020-2-25T09:29:24Z
2020-02-25T07:31:51Z,42.805,6.029,13.2979,4.59999,2470.04,2020-2-25T09:32:27Z
2020-02-25T07:34:55Z,42.805,6.029,13.2981,4.59996,2470.053,2020-2-25T09:35:30Z
2020-02-25T07:37:58Z,42.805,6.029,13.2971,4.59978,2470.04,2020-2-25T09:38:34Z
2020-02-25T07:41:01Z,42.805,6.029,13.2975,4.59997,2470.04,2020-2-25T09:41:37Z
2020-02-25T07:44:04Z,42.805,6.029,13.2974,4.59989,2470.053,2020-2-25T09:44:40Z
2020-02-25T07:47:08Z,42.805,6.029,13.2976,4.59992,2470.03,2020-2-25T09:47:43Z
2020-02-25T07:50:11Z,42.805,6.029,13.2974,4.59991,2470.063,2020-2-25T09:50:46Z
2020-02-25T07:53:14Z,42.805,6.029,13.2990,4.59988,2470.063,2020-2-25T09:53:50Z
2020-02-25T07:56:17Z,42.805,6.029,13.2976,4.59996,2470.04,2020-2-25T09:56:53Z
2020-02-25T07:59:20Z,42.805,6.029,13.2977,4.59984,2470.04,2020-2-25T09:59:56Z
2020-02-25T08:02:24Z,42.805,6.029,13.2972,4.59981,2470.04,2020-2-25T10:02:59Z
2020-02-25T08:05:27Z,42.805,6.029,13.2978,4.59981,2470.063,2020-2-25T10:06:03Z
2020-02-25T08:08:30Z,42.805,6.029,13.2982,4.59993,2470.063,2020-2-25T10:09:06Z
2020-02-25T08:11:33Z,42.805,6.029,13.2977,4.59991,2470.063,2020-2-25T10:12:09Z
2020-02-25T08:14:36Z,42.805,6.029,13.2980,4.59989,2470.04,2020-2-25T10:15:12Z
2020-02-25T08:17:40Z,42.805,6.029,13.2975,4.59994,2470.087,2020-2-25T10:18:15Z
2020-02-25T08:20:43Z,42.805,6.029,13.2978,4.59987,2470.087,2020-2-25T10:21:19Z
2020-02-25T08:23:46Z,42.805,6.029,13.2976,4.59985,2470.063,2020-2-25T10:24:22Z
2020-02-25T08:26:49Z,42.805,6.029,13.2976,4.59991,2470.04,2020-2-25T10:27:25Z
2020-02-25T08:29:53Z,42.805,6.029,13.2968,4.59986,2470.063,2020-2-25T10:30:28Z
2020-02-25T08:32:56Z,42.805,6.029,13.2984,4.59996,2470.063,2020-2-25T10:33:31Z
2020-02-25T08:35:59Z,42.805,6.029,13.2982,4.60001,2470.063,2020-2-25T10:36:35Z
2020-02-25T08:39:02Z,42.805,6.029,13.2979,4.59981,2470.017,2020-2-25T10:39:38Z
2020-02-25T08:42:06Z,42.805,6.029,13.2971,4.59981,2470.063,2020-2-25T10:42:41Z
2020-02-25T08:45:09Z,42.805,6.029,13.2986,4.59993,2470.063,2020-2-25T10:45:44Z
2020-02-25T08:48:12Z,42.805,6.029,13.2971,4.59992,2470.063,2020-2-25T10:48:48Z
2020-02-25T08:51:15Z,42.805,6.029,13.2976,4.59986,2470.063,2020-2-25T10:51:51Z
2020-02-25T08:54:18Z,42.805,6.029,13.2974,4.59980,2470.1,2020-2-25T10:54:54Z
2020-02-25T08:57:22Z,42.805,6.029,13.2980,4.59986,2470.053,2020-2-25T10:57:57Z
2020-02-25T09:00:25Z,42.805,6.029,13.2974,4.59985,2470.077,2020-2-25T11:01:00Z
2020-02-25T09:03:28Z,42.805,6.029,13.2983,4.59992,2469.993,2020-2-25T11:04:04Z
2020-02-25T09:06:31Z,42.805,6.029,13.2985,4.59994,2470.1,2020-2-25T11:07:07Z
2020-02-25T09:09:34Z,42.805,6.029,13.2970,4.59979,2470.1,2020-2-25T11:10:10Z
2020-02-25T09:12:38Z,42.805,6.029,13.2984,4.59996,2470.063,2020-2-25T11:13:13Z
2020-02-25T09:15:41Z,42.805,6.029,13.2974,4.59995,2470.04,2020-2-25T11:16:17Z
2020-02-25T09:18:44Z,42.805,6.029,13.2980,4.59993,2470.063,2020-2-25T11:19:20Z
2020-02-25T09:21:47Z,42.805,6.029,13.2971,4.59991,2470.1,2020-2-25T11:22:23Z
2020-02-25T09:24:51Z,42.805,6.029,13.2983,4.59994,2470.063,2020-2-25T11:25:26Z
2020-02-25T09:27:54Z,42.805,6.029,13.2976,4.59991,2470.077,2020-2-25T11:28:29Z
2020-02-25T09:30:57Z,42.805,6.029,13.2979,4.59992,2470.04,2020-2-25T11:31:33Z
2020-02-25T09:34:00Z,42.805,6.029,13.2983,4.59997,2470.04,2020-2-25T11:34:36Z
2020-02-25T09:37:04Z,42.805,6.029,13.2978,4.59993,2470.053,2020-2-25T11:37:39Z
2020-02-25T09:40:07Z,42.805,6.029,13.2971,4.59979,2470.04,2020-2-25T11:40:42Z
2020-02-25T09:43:10Z,42.805,6.029,13.2977,4.59985,2470.087,2020-2-25T11:43:46Z
2020-02-25T09:46:13Z,42.805,6.029,13.2968,4.59976,2470.053,2020-2-25T11:46:49Z
2020-02-25T09:49:16Z,42.805,6.029,13.2971,4.59976,2470.063,2020-2-25T11:49:52Z
2020-02-25T09:52:20Z,42.805,6.029,13.2974,4.59976,2470.053,2020-2-25T11:52:55Z
2020-02-25T09:55:23Z,42.805,6.029,13.2980,4.59991,2470.053,2020-2-25T11:55:58Z
2020-02-25T09:58:26Z,42.805,6.029,13.2971,4.59976,2470.03,2020-2-25T11:59:02Z
2020-02-25T10:01:29Z,42.805,6.029,13.2971,4.59976,2470.04,2020-2-25T12:02:05Z
2020-02-25T10:04:32Z,42.805,6.029,13.2971,4.59984,2470.04,2020-2-25T12:05:08Z
2020-02-25T10:07:36Z,42.805,6.029,13.2970,4.59978,2470.053,2020-2-25T12:08:11Z
2020-02-25T10:10:39Z,42.805,6.029,13.2976,4.59976,2470.007,2020-2-25T12:11:15Z
2020-02-25T10:13:42Z,42.805,6.029,13.2970,4.59976,2470.053,2020-2-25T12:14:18Z
2020-02-25T10:16:45Z,42.805,6.029,13.2975,4.59979,2470.063,2020-2-25T12:17:21Z
2020-02-25T10:19:48Z,42.805,6.029,13.2977,4.59990,2470.03,2020-2-25T12:20:24Z
2020-02-25T10:22:52Z,42.805,6.029,13.2974,4.59978,2469.993,2020-2-25T12:23:27Z
2020-02-25T10:25:55Z,42.805,6.029,13.2973,4.59979,2470.017,2020-2-25T12:26:31Z
2020-02-25T10:28:58Z,42.805,6.029,13.2966,4.59983,2470.053,2020-2-25T12:29:34Z
2020-02-25T10:32:01Z,42.805,6.029,13.2971,4.59976,2470.053,2020-2-25T12:32:37Z
2020-02-25T10:35:04Z,42.805,6.029,13.2974,4.59977,2470.007,2020-2-25T12:35:40Z
2020-02-25T10:38:08Z,42.805,6.029,13.2980,4.59995,2470.017,2020-2-25T12:38:43Z
2020-02-25T10:41:11Z,42.805,6.029,13.2976,4.59991,2469.993,2020-2-25T12:41:46Z
2020-02-25T10:44:14Z,42.805,6.029,13.2974,4.59985,2470.017,2020-2-25T12:44:50Z
2020-02-25T10:47:17Z,42.805,6.029,13.2982,4.59997,2470.03,2020-2-25T12:47:53Z
2020-02-25T10:50:20Z,42.805,6.029,13.2971,4.59979,2470.04,2020-2-25T12:50:56Z
2020-02-25T10:53:24Z,42.805,6.029,13.2972,4.59974,2469.993,2020-2-25T12:53:59Z
2020-02-25T10:56:27Z,42.805,6.029,13.2974,4.59975,2470.017,2020-2-25T12:57:03Z
2020-02-25T10:59:30Z,42.805,6.029,13.2974,4.59976,2469.993,2020-2-25T13:00:06Z
2020-02-25T11:02:33Z,42.805,6.029,13.2976,4.59990,2470.03,2020-2-25T13:03:09Z
2020-02-25T11:05:36Z,42.805,6.029,13.2967,4.59975,2470.017,2020-2-25T13:06:12Z
2020-02-25T11:08:40Z,42.805,6.029,13.2974,4.59983,2469.993,2020-2-25T13:09:15Z
2020-02-25T11:11:43Z,42.805,6.029,13.2982,4.59999,2469.993,2020-2-25T13:12:18Z
2020-02-25T11:14:46Z,42.805,6.029,13.2972,4.59981,2469.97,2020-2-25T13:15:22Z
2020-02-25T11:17:49Z,42.805,6.029,13.2979,4.59995,2470.053,2020-2-25T13:18:25Z
2020-02-25T11:20:52Z,42.805,6.029,13.2971,4.59982,2469.993,2020-2-25T13:21:28Z
2020-02-25T11:23:56Z,42.805,6.029,13.2982,4.59993,2470.03,2020-2-25T13:24:31Z
2020-02-25T11:26:59Z,42.805,6.029,13.2974,4.59997,2469.993,2020-2-25T13:27:34Z
2020-02-25T11:30:02Z,42.805,6.029,13.2979,4.59990,2469.97,2020-2-25T13:30:38Z
2020-02-25T11:33:05Z,42.805,6.029,13.2979,4.59990,2470.007,2020-2-25T13:33:41Z
2020-02-25T11:36:09Z,42.805,6.029,13.2985,4.59987,2469.993,2020-2-25T13:36:44Z
2020-02-25T11:39:12Z,42.805,6.029,13.2971,4.59978,2469.96,2020-2-25T13:39:48Z
2020-02-25T11:42:15Z,42.805,6.029,13.2973,4.59981,2469.993,2020-2-25T13:42:51Z
2020-02-25T11:45:18Z,42.805,6.029,13.2975,4.59988,2469.97,2020-2-25T13:45:54Z
2020-02-25T11:48:22Z,42.805,6.029,13.2981,4.59998,2470.007,2020-2-25T13:48:57Z
2020-02-25T11:51:25Z,42.805,6.029,13.2980,4.59998,2470.007,2020-2-25T13:52:00Z
2020-02-25T11:54:28Z,42.805,6.029,13.2974,4.59981,2469.947,2020-2-25T13:55:04Z
2020-02-25T11:57:32Z,42.805,6.029,13.2977,4.59979,2469.947,2020-2-25T13:58:07Z
2020-02-25T12:00:35Z,42.805,6.029,13.2975,4.59976,2469.97,2020-2-25T14:01:10Z
2020-02-25T12:03:38Z,42.805,6.029,13.2979,4.59989,2469.923,2020-2-25T14:04:14Z
2020-02-25T12:06:42Z,42.805,6.029,13.2981,4.59997,2469.96,2020-2-25T14:07:17Z
2020-02-25T12:09:45Z,42.805,6.029,13.2982,4.59996,2469.947,2020-2-25T14:10:20Z
2020-02-25T12:12:48Z,42.805,6.029,13.2980,4.59985,2469.923,2020-2-25T14:13:24Z
2020-02-25T12:15:51Z,42.805,6.029,13.2969,4.59978,2469.947,2020-2-25T14:16:27Z
2020-02-25T12:18:54Z,42.805,6.029,13.2971,4.59979,2469.947,2020-2-25T14:19:30Z
2020-02-25T12:21:57Z,42.805,6.029,13.2980,4.59989,2469.9,2020-2-25T14:22:33Z
2020-02-25T12:25:01Z,42.805,6.029,13.2976,4.59985,2469.923,2020-2-25T14:25:36Z
2020-02-25T12:28:04Z,42.805,6.029,13.2980,4.59992,2469.97,2020-2-25T14:28:40Z
2020-02-25T12:31:07Z,42.805,6.029,13.2983,4.59999,2469.923,2020-2-25T14:31:43Z
2020-02-25T12:34:11Z,42.805,6.029,13.2981,4.59996,2469.923,2020-2-25T14:34:46Z
2020-02-25T12:37:14Z,42.805,6.029,13.2979,4.59991,2469.886,2020-2-25T14:37:49Z
2020-02-25T12:40:17Z,42.805,6.029,13.2977,4.59991,2469.937,2020-2-25T14:40:53Z
2020-02-25T12:43:20Z,42.805,6.029,13.2973,4.59974,2469.97,2020-2-25T14:43:56Z
2020-02-25T12:46:23Z,42.805,6.029,13.2974,4.59976,2469.9,2020-2-25T14:46:59Z
2020-02-25T12:49:27Z,42.805,6.029,13.2968,4.59976,2469.937,2020-2-25T14:50:02Z
2020-02-25T12:52:30Z,42.805,6.029,13.2974,4.59981,2469.914,2020-2-25T14:53:05Z
2020-02-25T12:55:33Z,42.805,6.029,13.2984,4.59996,2469.914,2020-2-25T14:56:09Z
2020-02-25T12:58:36Z,42.805,6.029,13.2974,4.59984,2469.9,2020-2-25T14:59:12Z
2020-02-25T13:01:39Z,42.805,6.029,13.2983,4.59995,2469.9,2020-2-25T15:02:15Z
2020-02-25T13:04:42Z,42.805,6.029,13.2976,4.59980,2469.9,2020-2-25T15:05:18Z
2020-02-25T13:07:46Z,42.805,6.029,13.2974,4.59978,2469.9,2020-2-25T15:08:21Z
2020-02-25T13:10:49Z,42.805,6.029,13.2986,4.59999,2469.89,2020-2-25T15:11:25Z
2020-02-25T13:13:52Z,42.805,6.029,13.2986,4.59999,2469.876,2020-2-25T15:14:28Z
2020-02-25T13:16:55Z,42.805,6.029,13.2975,4.59989,2469.89,2020-2-25T15:17:31Z
2020-02-25T13:19:59Z,42.805,6.029,13.2974,4.59980,2469.853,2020-2-25T15:20:34Z
2020-02-25T13:23:02Z,42.805,6.029,13.2971,4.59991,2469.89,2020-2-25T15:23:37Z
2020-02-25T13:26:05Z,42.805,6.029,13.2974,4.59999,2469.876,2020-2-25T15:26:41Z
2020-02-25T13:29:08Z,42.805,6.029,13.2975,4.59993,2469.853,2020-2-25T15:29:44Z
2020-02-25T13:32:11Z,42.805,6.029,13.2975,4.59990,2469.9,2020-2-25T15:32:47Z
2020-02-25T13:35:14Z,42.805,6.029,13.2972,4.59976,2469.89,2020-2-25T15:35:50Z
2020-02-25T13:38:18Z,42.805,6.029,13.2978,4.59981,2469.9,2020-2-25T15:38:53Z
2020-02-25T13:41:21Z,42.805,6.029,13.2975,4.59981,2469.89,2020-2-25T15:41:57Z
2020-02-25T13:44:24Z,42.805,6.029,13.2974,4.59978,2469.853,2020-2-25T15:45:00Z
2020-02-25T13:47:27Z,42.805,6.029,13.2976,4.59987,2469.83,2020-2-25T15:48:03Z
2020-02-25T13:50:31Z,42.805,6.029,13.2972,4.59978,2469.876,2020-2-25T15:51:06Z
2020-02-25T13:53:34Z,42.805,6.029,13.2976,4.59981,2469.914,2020-2-25T15:54:09Z
2020-02-25T13:56:37Z,42.805,6.029,13.2975,4.59978,2469.9,2020-2-25T15:57:13Z
2020-02-25T13:59:40Z,42.805,6.029,13.2974,4.59984,2469.876,2020-2-25T16:00:16Z
2020-02-25T14:02:43Z,42.805,6.029,13.2980,4.59996,2469.876,2020-2-25T16:03:19Z
2020-02-25T14:05:47Z,42.805,6.029,13.2977,4.59986,2469.9,2020-2-25T16:06:22Z
2020-02-25T14:08:50Z,42.805,6.029,13.2974,4.59978,2469.83,2020-2-25T16:09:25Z
2020-02-25T14:11:53Z,42.805,6.029,13.2978,4.59987,2469.853,2020-2-25T16:12:29Z
2020-02-25T14:14:56Z,42.805,6.029,13.2988,4.59991,2469.853,2020-2-25T16:15:32Z
2020-02-25T14:17:59Z,42.805,6.029,13.2976,4.59984,2469.853,2020-2-25T16:18:35Z
2020-02-25T14:21:02Z,42.805,6.029,13.2976,4.59981,2469.853,2020-2-25T16:21:38Z
2020-02-25T14:24:06Z,42.805,6.029,13.2978,4.59978,2469.867,2020-2-25T16:24:41Z
2020-02-25T14:27:09Z,42.805,6.029,13.2976,4.59983,2469.867,2020-2-25T16:27:45Z
2020-02-25T14:30:12Z,42.805,6.029,13.2983,4.59998,2469.853,2020-2-25T16:30:48Z
2020-02-25T14:33:15Z,42.805,6.029,13.2976,4.59989,2469.876,2020-2-25T16:33:51Z
2020-02-25T14:36:19Z,42.805,6.029,13.2987,4.59993,2469.867,2020-2-25T16:36:54Z
2020-02-25T14:39:22Z,42.805,6.029,13.2981,4.59988,2469.853,2020-2-25T16:39:57Z
2020-02-25T14:42:25Z,42.805,6.029,13.2984,4.59988,2469.89,2020-2-25T16:43:01Z
2020-02-25T14:45:28Z,42.805,6.029,13.2983,4.59981,2469.89,2020-2-25T16:46:04Z
2020-02-25T14:48:32Z,42.805,6.029,13.2978,4.60003,2469.853,2020-2-25T16:49:08Z
2020-02-25T14:51:35Z,42.805,6.029,13.2984,4.59983,2469.853,2020-2-25T16:52:11Z
2020-02-25T14:54:38Z,42.805,6.029,13.2978,4.59985,2469.853,2020-2-25T16:55:14Z
2020-02-25T14:57:42Z,42.805,6.029,13.2980,4.59996,2469.844,2020-2-25T16:58:17Z
2020-02-25T15:00:45Z,42.805,6.029,13.2972,4.59981,2469.876,2020-2-25T17:01:20Z
2020-02-25T15:03:48Z,42.805,6.029,13.2982,4.59986,2469.867,2020-2-25T17:04:24Z
2020-02-25T15:06:51Z,42.805,6.029,13.2979,4.59981,2469.853,2020-2-25T17:07:27Z
2020-02-25T15:09:54Z,42.805,6.029,13.2979,4.59977,2469.853,2020-2-25T17:10:30Z
2020-02-25T15:12:57Z,42.805,6.029,13.2975,4.59982,2469.867,2020-2-25T17:13:33Z
2020-02-25T15:16:01Z,42.805,6.029,13.2979,4.59984,2469.853,2020-2-25T17:16:36Z